Time,TemperatureF,DewpointF,PressureIn,WindDirection,WindDirectionDegrees,WindSpeedMPH,WindSpeedGustMPH,Humidity,HourlyPrecipIn,Conditions,Clouds,dailyrainin,SolarRadiationWatts/m^2,SoftwareType,DateUTC
2013-05-23 00:03:00,49.5,43.6,29.98,NNE,25,2.0,7.0,80,0.00,,---,0.00,0.00,VWS V14.01,2013-05-23 05:03:00,
2013-05-23 00:08:00,49.4,43.5,29.98,NNE,21,0.0,7.0,80,0.00,,---,0.00,0.00,VWS V14.01,2013-05-23 05:08:00,
2013-05-23 00:13:00,49.2,43.3,29.98,NNE,22,0.0,6.0,80,0.00,,---,0.00,0.00,VWS V14.01,2013-05-23 05:13:00,
2013-05-23 00:18:00,48.9,43.3,29.99,NNE,24,0.0,6.0,81,0.00,,---,0.00,0.00,VWS V14.01,2013-05-23 05:18:00,
2013-05-23 00:23:00,48.7,43.5,29.99,NNE,22,3.0,7.0,82,0.00,,---,0.00,0.00,VWS V14.01,2013-05-23 05:23:00,
2013-05-23 00:28:00,48.4,43.2,29.99,NNE,19,0.0,6.0,82,0.00,,---,0.00,0.00,VWS V14.01,2013-05-23 05:28:00,
2013-05-23 00:33:00,48.1,43.2,30.00,NNE,19,1.0,7.0,83,0.00,,---,0.00,0.00,VWS V14.01,2013-05-23 05:33:00,
2013-05-23 00:38:00,47.9,43.0,30.00,NNE,22,1.0,4.0,83,0.00,,---,0.00,0.00,VWS V14.01,2013-05-23 05:38:00,
2013-05-23 00:43:00,47.8,43.2,30.00,NNE,30,5.0,6.0,84,0.00,,---,0.00,0.00,VWS V14.01,2013-05-23 05:43:00,
2013-05-23 00:48:00,47.6,43.0,30.00,NNE,18,0.0,4.0,84,0.00,,---,0.00,0.00,VWS V14.01,2013-05-23 05:48:00,
2013-05-23 00:53:00,47.3,42.7,30.00,NNE,27,1.0,4.0,84,0.00,,---,0.00,0.00,VWS V14.01,2013-05-23 05:53:00,
2013-05-23 00:58:00,47.0,42.7,30.00,North,11,4.0,5.0,85,0.00,,---,0.00,0.00,VWS V14.01,2013-05-23 05:58:00,
2013-05-23 01:03:00,46.9,42.6,30.00,NNW,345,0.0,5.0,85,0.00,,---,0.00,0.00,VWS V14.01,2013-05-23 06:03:00,
2013-05-23 01:08:00,46.9,42.6,30.00,NNE,15,0.0,5.0,85,0.00,,---,0.00,0.00,VWS V14.01,2013-05-23 06:08:00,
2013-05-23 01:13:00,46.7,42.7,30.00,North,355,3.0,6.0,86,0.00,,---,0.00,0.00,VWS V14.01,2013-05-23 06:13:00,
2013-05-23 01:19:00,46.4,42.5,30.01,North,360,0.0,6.0,86,0.00,,---,0.00,0.00,VWS V14.01,2013-05-23 06:19:00,
2013-05-23 01:24:00,46.2,42.5,30.01,NNW,346,4.0,7.0,87,0.00,,---,0.00,0.00,VWS V14.01,2013-05-23 06:24:00,
2013-05-23 01:29:00,46.2,42.5,30.01,North,355,5.0,5.0,87,0.00,,---,0.00,0.00,VWS V14.01,2013-05-23 06:29:00,
2013-05-23 01:34:00,46.2,42.5,30.02,NNE,15,5.0,9.0,87,0.00,,---,0.00,0.00,VWS V14.01,2013-05-23 06:34:00,
2013-05-23 01:39:00,46.4,42.8,30.02,NNE,30,5.0,8.0,87,0.00,,---,0.00,0.00,VWS V14.01,2013-05-23 06:39:00,
2013-05-23 01:44:00,46.3,42.7,30.02,NE,40,4.0,10.0,87,0.00,,---,0.00,0.00,VWS V14.01,2013-05-23 06:44:00,
2013-05-23 01:49:00,46.2,42.5,30.02,NNE,26,6.0,7.0,87,0.00,,---,0.00,0.00,VWS V14.01,2013-05-23 06:49:00,
2013-05-23 01:54:00,46.1,42.5,30.02,NE,37,8.0,8.0,87,0.00,,---,0.00,0.00,VWS V14.01,2013-05-23 06:54:00,
2013-05-23 01:59:00,46.1,42.5,30.02,NNE,24,9.0,9.0,87,0.00,,---,0.00,0.00,VWS V14.01,2013-05-23 06:59:00,
2013-05-23 02:04:00,46.0,42.3,30.03,NNE,22,2.0,6.0,87,0.00,,---,0.00,0.00,VWS V14.01,2013-05-23 07:04:00,
2013-05-23 02:09:00,45.9,42.3,30.03,North,5,1.0,11.0,87,0.00,,---,0.00,0.00,VWS V14.01,2013-05-23 07:09:00,
2013-05-23 02:14:00,45.8,42.2,30.03,North,11,4.0,10.0,87,0.00,,---,0.00,0.00,VWS V14.01,2013-05-23 07:14:00,
2013-05-23 02:19:00,45.7,42.1,30.04,NNE,21,4.0,10.0,87,0.00,,---,0.00,0.00,VWS V14.01,2013-05-23 07:19:00,
2013-05-23 02:25:00,45.6,42.0,30.04,NNE,32,2.0,4.0,87,0.00,,---,0.00,0.00,VWS V14.01,2013-05-23 07:25:00,
2013-05-23 02:30:00,45.5,42.2,30.04,NNE,23,4.0,7.0,88,0.00,,---,0.00,0.00,VWS V14.01,2013-05-23 07:30:00,
2013-05-23 02:35:00,45.5,42.2,30.05,NNE,23,3.0,4.0,88,0.00,,---,0.00,0.00,VWS V14.01,2013-05-23 07:35:00,
2013-05-23 02:40:00,45.4,42.1,30.05,NNE,29,0.0,6.0,88,0.00,,---,0.00,0.00,VWS V14.01,2013-05-23 07:40:00,
2013-05-23 02:45:00,45.3,42.0,30.05,NNE,22,2.0,6.0,88,0.00,,---,0.00,0.00,VWS V14.01,2013-05-23 07:45:00,
2013-05-23 02:50:00,45.4,42.1,30.06,NNE,15,0.0,6.0,88,0.00,,---,0.00,0.00,VWS V14.01,2013-05-23 07:50:00,
2013-05-23 02:55:00,45.3,42.0,30.06,NNE,26,3.0,5.0,88,0.00,,---,0.00,0.00,VWS V14.01,2013-05-23 07:55:00,
2013-05-23 03:00:00,45.2,41.9,30.06,North,360,1.0,6.0,88,0.00,,---,0.00,0.00,VWS V14.01,2013-05-23 08:00:00,
2013-05-23 03:05:00,45.2,41.9,30.06,NE,40,2.0,6.0,88,0.00,,---,0.00,0.00,VWS V14.01,2013-05-23 08:05:00,
2013-05-23 03:10:00,45.1,41.8,30.06,NNE,26,2.0,4.0,88,0.00,,---,0.00,0.00,VWS V14.01,2013-05-23 08:10:00,
2013-05-23 03:15:00,44.9,41.6,30.07,NNE,29,3.0,4.0,88,0.00,,---,0.00,0.00,VWS V14.01,2013-05-23 08:15:00,
2013-05-23 03:20:00,44.9,41.6,30.07,NNE,19,2.0,6.0,88,0.00,,---,0.00,0.00,VWS V14.01,2013-05-23 08:20:00,
2013-05-23 03:26:00,44.9,41.6,30.07,NNE,26,3.0,5.0,88,0.00,,---,0.00,0.00,VWS V14.01,2013-05-23 08:26:00,
2013-05-23 03:31:00,44.9,41.6,30.08,NE,48,4.0,11.0,88,0.00,,---,0.00,0.00,VWS V14.01,2013-05-23 08:31:00,
2013-05-23 03:36:00,44.9,41.3,30.08,NE,37,3.0,4.0,87,0.00,,---,0.00,0.00,VWS V14.01,2013-05-23 08:36:00,
2013-05-23 03:41:00,44.7,41.1,30.08,NNE,28,3.0,3.0,87,0.00,,---,0.00,0.00,VWS V14.01,2013-05-23 08:41:00,
2013-05-23 03:46:00,44.5,41.2,30.08,NNE,26,2.0,5.0,88,0.00,,---,0.00,0.00,VWS V14.01,2013-05-23 08:46:00,
2013-05-23 03:51:00,44.3,40.7,30.08,NNE,24,1.0,1.0,87,0.00,,---,0.00,0.00,VWS V14.01,2013-05-23 08:51:00,
2013-05-23 03:56:00,44.1,40.8,30.08,NNE,23,3.0,3.0,88,0.00,,---,0.00,0.00,VWS V14.01,2013-05-23 08:56:00,
2013-05-23 04:01:00,44.3,40.7,30.09,NE,38,2.0,6.0,87,0.00,,---,0.00,0.00,VWS V14.01,2013-05-23 09:01:00,
2013-05-23 04:06:00,44.3,40.7,30.09,NNE,30,4.0,6.0,87,0.00,,---,0.00,0.00,VWS V14.01,2013-05-23 09:06:00,
2013-05-23 04:11:00,44.5,40.3,30.09,NNE,26,7.0,8.0,85,0.00,,---,0.00,0.00,VWS V14.01,2013-05-23 09:11:00,
2013-05-23 04:17:00,44.6,40.1,30.10,NNE,32,1.0,5.0,84,0.00,,---,0.00,0.00,VWS V14.01,2013-05-23 09:17:00,
2013-05-23 04:22:00,44.3,39.8,30.10,NNE,29,0.0,4.0,84,0.00,,---,0.00,0.00,VWS V14.01,2013-05-23 09:22:00,
2013-05-23 04:27:00,44.1,39.6,30.10,NNE,31,3.0,5.0,84,0.00,,---,0.00,0.00,VWS V14.01,2013-05-23 09:27:00,
2013-05-23 04:32:00,44.2,39.7,30.11,NNE,22,5.0,5.0,84,0.00,,---,0.00,0.00,VWS V14.01,2013-05-23 09:32:00,
2013-05-23 04:37:00,44.2,39.4,30.11,NNE,29,2.0,4.0,83,0.00,,---,0.00,0.00,VWS V14.01,2013-05-23 09:37:00,
2013-05-23 04:42:00,44.1,39.3,30.11,NNE,24,1.0,5.0,83,0.00,,---,0.00,0.00,VWS V14.01,2013-05-23 09:42:00,
2013-05-23 04:47:00,44.0,38.9,30.12,NNE,24,0.0,6.0,82,0.00,,---,0.00,0.00,VWS V14.01,2013-05-23 09:47:00,
2013-05-23 04:52:00,43.9,38.8,30.12,NNE,21,5.0,6.0,82,0.00,,---,0.00,0.00,VWS V14.01,2013-05-23 09:52:00,
2013-05-23 04:57:00,43.9,38.5,30.12,NNE,30,4.0,6.0,81,0.00,,---,0.00,0.00,VWS V14.01,2013-05-23 09:57:00,
2013-05-23 05:02:00,44.0,38.2,30.13,NNE,31,5.0,13.0,80,0.00,,---,0.00,0.00,VWS V14.01,2013-05-23 10:02:00,
2013-05-23 05:07:00,43.9,38.1,30.13,NNE,29,4.0,4.0,80,0.00,,---,0.00,0.00,VWS V14.01,2013-05-23 10:07:00,
2013-05-23 05:12:00,43.5,38.1,30.13,NNE,32,3.0,4.0,81,0.00,,---,0.00,0.00,VWS V14.01,2013-05-23 10:12:00,
2013-05-23 05:17:00,43.4,38.0,30.13,NNE,19,7.0,7.0,81,0.00,,---,0.00,0.00,VWS V14.01,2013-05-23 10:17:00,
2013-05-23 05:22:00,43.5,38.1,30.13,NE,42,4.0,9.0,81,0.00,,---,0.00,0.00,VWS V14.01,2013-05-23 10:22:00,
2013-05-23 05:27:00,43.6,37.8,30.13,NE,44,4.0,9.0,80,0.00,,---,0.00,0.00,VWS V14.01,2013-05-23 10:27:00,
2013-05-23 05:32:00,43.5,37.8,30.15,NNE,24,4.0,7.0,80,0.00,,---,0.00,0.00,VWS V14.01,2013-05-23 10:32:00,
2013-05-23 05:38:00,43.3,37.6,30.15,NNE,30,5.0,9.0,80,0.00,,---,0.00,7.00,VWS V14.01,2013-05-23 10:38:00,
2013-05-23 05:43:00,43.3,37.6,30.15,NNE,22,4.0,7.0,80,0.00,,---,0.00,9.00,VWS V14.01,2013-05-23 10:43:00,
2013-05-23 05:48:00,43.4,37.7,30.15,NNE,14,11.0,11.0,80,0.00,,---,0.00,14.00,VWS V14.01,2013-05-23 10:48:00,
2013-05-23 05:53:00,43.4,37.3,30.15,North,11,10.0,10.0,79,0.00,,---,0.00,19.00,VWS V14.01,2013-05-23 10:53:00,
2013-05-23 05:58:00,43.4,37.3,30.15,ENE,64,12.0,12.0,79,0.00,,---,0.00,25.00,VWS V14.01,2013-05-23 10:58:00,
2013-05-23 06:03:00,43.6,36.9,30.15,NNE,30,7.0,14.0,77,0.00,,---,0.00,33.00,VWS V14.01,2013-05-23 11:03:00,
2013-05-23 06:08:00,43.7,37.0,30.15,NNE,32,7.0,10.0,77,0.00,,---,0.00,42.00,VWS V14.01,2013-05-23 11:08:00,
2013-05-23 06:13:00,43.6,36.9,30.15,NE,36,6.0,11.0,77,0.00,,---,0.00,53.00,VWS V14.01,2013-05-23 11:13:00,
2013-05-23 06:18:00,43.6,36.9,30.16,NE,49,7.0,11.0,77,0.00,,---,0.00,65.00,VWS V14.01,2013-05-23 11:18:00,
2013-05-23 06:23:00,43.6,36.9,30.16,North,11,5.0,10.0,77,0.00,,---,0.00,79.00,VWS V14.01,2013-05-23 11:23:00,
2013-05-23 06:28:00,43.6,36.5,30.16,NNE,29,5.0,10.0,76,0.00,,---,0.00,95.00,VWS V14.01,2013-05-23 11:28:00,
2013-05-23 06:33:00,43.6,36.5,30.17,NNE,32,7.0,10.0,76,0.00,,---,0.00,111.00,VWS V14.01,2013-05-23 11:33:00,
2013-05-23 06:38:00,43.7,36.6,30.17,NNE,26,7.0,10.0,76,0.00,,---,0.00,125.00,VWS V14.01,2013-05-23 11:38:00,
2013-05-23 06:43:00,43.8,36.4,30.17,NE,35,9.0,12.0,75,0.00,,---,0.00,142.00,VWS V14.01,2013-05-23 11:43:00,
2013-05-23 06:48:00,43.9,36.5,30.18,NE,46,5.0,11.0,75,0.00,,---,0.00,162.00,VWS V14.01,2013-05-23 11:48:00,
2013-05-23 06:53:00,43.9,36.5,30.18,NE,37,3.0,13.0,75,0.00,,---,0.00,179.00,VWS V14.01,2013-05-23 11:53:00,
2013-05-23 06:58:00,44.0,36.3,30.18,NE,50,8.0,15.0,74,0.00,,---,0.00,197.00,VWS V14.01,2013-05-23 11:58:00,
2013-05-23 07:04:00,44.1,36.7,30.19,NE,46,16.0,16.0,75,0.00,,---,0.00,214.00,VWS V14.01,2013-05-23 12:04:00,
2013-05-23 07:09:00,44.2,36.5,30.19,NNE,30,6.0,9.0,74,0.00,,---,0.00,232.00,VWS V14.01,2013-05-23 12:09:00,
2013-05-23 07:14:00,44.4,36.7,30.19,NE,47,6.0,12.0,74,0.00,,---,0.00,250.00,VWS V14.01,2013-05-23 12:14:00,
2013-05-23 07:19:00,44.4,36.3,30.19,NE,46,6.0,14.0,73,0.00,,---,0.00,265.00,VWS V14.01,2013-05-23 12:19:00,
2013-05-23 07:24:00,44.4,36.0,30.19,NE,35,11.0,15.0,72,0.00,,---,0.00,281.00,VWS V14.01,2013-05-23 12:24:00,
2013-05-23 07:29:00,44.5,36.0,30.19,NE,36,5.0,14.0,72,0.00,,---,0.00,299.00,VWS V14.01,2013-05-23 12:29:00,
2013-05-23 07:34:00,44.8,36.3,30.20,NNE,26,11.0,13.0,72,0.00,,---,0.00,313.00,VWS V14.01,2013-05-23 12:34:00,
2013-05-23 07:39:00,44.9,35.7,30.20,NE,40,10.0,15.0,70,0.00,,---,0.00,330.00,VWS V14.01,2013-05-23 12:39:00,
2013-05-23 07:44:00,45.1,35.9,30.20,NNE,26,10.0,13.0,70,0.00,,---,0.00,346.00,VWS V14.01,2013-05-23 12:44:00,
2013-05-23 07:49:00,45.4,35.8,30.21,NE,41,9.0,12.0,69,0.00,,---,0.00,362.00,VWS V14.01,2013-05-23 12:49:00,
2013-05-23 07:54:00,45.7,35.8,30.21,ENE,61,8.0,16.0,68,0.00,,---,0.00,376.00,VWS V14.01,2013-05-23 12:54:00,
2013-05-23 07:59:00,45.5,35.2,30.21,NE,43,10.0,18.0,67,0.00,,---,0.00,394.00,VWS V14.01,2013-05-23 12:59:00,
2013-05-23 08:04:00,46.0,35.7,30.21,NE,42,12.0,16.0,67,0.00,,---,0.00,410.00,VWS V14.01,2013-05-23 13:04:00,
2013-05-23 08:10:00,46.0,35.7,30.21,NE,34,8.0,18.0,67,0.00,,---,0.00,427.00,VWS V14.01,2013-05-23 13:10:00,
2013-05-23 08:15:00,46.1,35.0,30.21,NE,34,14.0,16.0,65,0.00,,---,0.00,441.00,VWS V14.01,2013-05-23 13:15:00,
2013-05-23 08:20:00,46.3,35.6,30.22,NNE,32,12.0,13.0,66,0.00,,---,0.00,459.00,VWS V14.01,2013-05-23 13:20:00,
2013-05-23 08:25:00,46.5,35.4,30.22,NE,42,9.0,16.0,65,0.00,,---,0.00,475.00,VWS V14.01,2013-05-23 13:25:00,
2013-05-23 08:30:00,46.9,35.8,30.22,ENE,67,11.0,12.0,65,0.00,,---,0.00,492.00,VWS V14.01,2013-05-23 13:30:00,
2013-05-23 08:35:00,46.6,35.1,30.22,NE,42,13.0,15.0,64,0.00,,---,0.00,510.00,VWS V14.01,2013-05-23 13:35:00,
2013-05-23 08:40:00,46.8,34.5,30.22,NE,39,15.0,22.0,62,0.00,,---,0.00,527.00,VWS V14.01,2013-05-23 13:40:00,
2013-05-23 08:45:00,47.0,34.7,30.22,ENE,63,12.0,19.0,62,0.00,,---,0.00,543.00,VWS V14.01,2013-05-23 13:45:00,
2013-05-23 08:50:00,47.3,35.4,30.22,NE,42,10.0,16.0,63,0.00,,---,0.00,557.00,VWS V14.01,2013-05-23 13:50:00,
2013-05-23 08:55:00,47.5,35.5,30.22,ENE,65,12.0,14.0,63,0.00,,---,0.00,573.00,VWS V14.01,2013-05-23 13:55:00,
2013-05-23 09:00:00,47.9,35.5,30.22,NE,45,6.0,13.0,62,0.00,,---,0.00,585.00,VWS V14.01,2013-05-23 14:00:00,
2013-05-23 09:05:00,47.9,35.1,30.23,NE,37,13.0,17.0,61,0.00,,---,0.00,596.00,VWS V14.01,2013-05-23 14:05:00,
2013-05-23 09:10:00,48.0,35.6,30.23,NNE,30,6.0,14.0,62,0.00,,---,0.00,610.00,VWS V14.01,2013-05-23 14:10:00,
2013-05-23 09:15:00,48.1,35.3,30.23,NE,42,6.0,17.0,61,0.00,,---,0.00,622.00,VWS V14.01,2013-05-23 14:15:00,
2013-05-23 09:20:00,48.1,34.9,30.23,NE,50,17.0,17.0,60,0.00,,---,0.00,636.00,VWS V14.01,2013-05-23 14:20:00,
2013-05-23 09:25:00,48.7,35.9,30.23,NNE,28,13.0,15.0,61,0.00,,---,0.00,649.00,VWS V14.01,2013-05-23 14:25:00,
2013-05-23 09:30:00,48.6,34.9,30.24,NNE,32,11.0,14.0,59,0.00,,---,0.00,663.00,VWS V14.01,2013-05-23 14:30:00,
2013-05-23 09:35:00,48.7,34.2,30.24,NE,36,7.0,16.0,57,0.00,,---,0.00,673.00,VWS V14.01,2013-05-23 14:35:00,
2013-05-23 09:40:00,49.0,34.9,30.24,NE,52,12.0,17.0,58,0.00,,---,0.00,689.00,VWS V14.01,2013-05-23 14:40:00,
2013-05-23 09:45:00,48.7,34.6,30.24,NNE,24,12.0,19.0,58,0.00,,---,0.00,703.00,VWS V14.01,2013-05-23 14:45:00,
2013-05-23 09:51:00,49.0,34.9,30.24,North,355,6.0,11.0,58,0.00,,---,0.00,715.00,VWS V14.01,2013-05-23 14:51:00,
2013-05-23 09:56:00,49.4,34.8,30.24,NE,38,6.0,15.0,57,0.00,,---,0.00,728.00,VWS V14.01,2013-05-23 14:56:00,
2013-05-23 10:01:00,49.4,34.8,30.24,NE,52,12.0,14.0,57,0.00,,---,0.00,740.00,VWS V14.01,2013-05-23 15:01:00,
2013-05-23 10:06:00,50.2,36.4,30.24,NNW,347,6.0,9.0,59,0.00,,---,0.00,751.00,VWS V14.01,2013-05-23 15:06:00,
2013-05-23 10:11:00,50.7,36.0,30.24,North,360,6.0,10.0,57,0.00,,---,0.00,759.00,VWS V14.01,2013-05-23 15:11:00,
2013-05-23 10:16:00,50.4,35.3,30.24,NNE,31,6.0,12.0,56,0.00,,---,0.00,772.00,VWS V14.01,2013-05-23 15:16:00,
2013-05-23 10:21:00,51.3,35.7,30.24,NW,317,7.0,14.0,55,0.00,,---,0.00,780.00,VWS V14.01,2013-05-23 15:21:00,
2013-05-23 10:26:00,51.0,35.4,30.24,NE,55,9.0,13.0,55,0.00,,---,0.00,789.00,VWS V14.01,2013-05-23 15:26:00,
2013-05-23 10:31:00,50.6,35.5,30.25,NNW,348,6.0,12.0,56,0.00,,---,0.00,802.00,VWS V14.01,2013-05-23 15:31:00,
2013-05-23 10:36:00,51.2,36.1,30.25,ENE,76,5.0,13.0,56,0.00,,---,0.00,812.00,VWS V14.01,2013-05-23 15:36:00,
2013-05-23 10:41:00,51.4,37.1,30.25,NNE,33,5.0,15.0,58,0.00,,---,0.00,819.00,VWS V14.01,2013-05-23 15:41:00,
2013-05-23 10:46:00,51.6,35.5,30.24,NNE,20,5.0,14.0,54,0.00,,---,0.00,828.00,VWS V14.01,2013-05-23 15:46:00,
2013-05-23 10:51:00,52.0,36.3,30.24,ENE,58,9.0,13.0,55,0.00,,---,0.00,838.00,VWS V14.01,2013-05-23 15:51:00,
2013-05-23 10:57:00,51.7,36.1,30.24,NE,40,6.0,13.0,55,0.00,,---,0.00,849.00,VWS V14.01,2013-05-23 15:57:00,
2013-05-23 11:02:00,52.2,35.6,30.24,North,355,9.0,13.0,53,0.00,,---,0.00,856.00,VWS V14.01,2013-05-23 16:02:00,
2013-05-23 11:07:00,52.0,34.9,30.24,NE,39,6.0,11.0,52,0.00,,---,0.00,865.00,VWS V14.01,2013-05-23 16:07:00,
2013-05-23 11:12:00,52.5,36.3,30.24,NNE,33,9.0,10.0,54,0.00,,---,0.00,872.00,VWS V14.01,2013-05-23 16:12:00,
2013-05-23 11:17:00,52.7,35.6,30.25,North,9,6.0,11.0,52,0.00,,---,0.00,882.00,VWS V14.01,2013-05-23 16:17:00,
2013-05-23 11:22:00,53.6,36.4,30.25,NE,37,7.0,14.0,52,0.00,,---,0.00,886.00,VWS V14.01,2013-05-23 16:22:00,
2013-05-23 11:27:00,53.2,35.1,30.25,NNE,26,7.0,11.0,50,0.00,,---,0.00,895.00,VWS V14.01,2013-05-23 16:27:00,
2013-05-23 11:32:00,53.5,35.8,30.25,NE,48,9.0,10.0,51,0.00,,---,0.00,895.00,VWS V14.01,2013-05-23 16:32:00,
2013-05-23 11:37:00,53.6,34.4,30.25,NNE,15,3.0,14.0,48,0.00,,---,0.00,907.00,VWS V14.01,2013-05-23 16:37:00,
2013-05-23 11:42:00,54.1,34.9,30.25,North,5,6.0,10.0,48,0.00,,---,0.00,911.00,VWS V14.01,2013-05-23 16:42:00,
2013-05-23 11:47:00,54.0,35.8,30.25,NNE,19,11.0,12.0,50,0.00,,---,0.00,918.00,VWS V14.01,2013-05-23 16:47:00,
2013-05-23 11:52:00,54.4,36.7,30.25,NE,41,9.0,14.0,51,0.00,,---,0.00,923.00,VWS V14.01,2013-05-23 16:52:00,
2013-05-23 11:57:00,54.4,34.1,30.25,NNE,21,6.0,16.0,46,0.00,,---,0.00,928.00,VWS V14.01,2013-05-23 16:57:00,
2013-05-23 12:02:00,54.8,33.3,30.25,NE,44,7.0,13.0,44,0.00,,---,0.00,930.00,VWS V14.01,2013-05-23 17:02:00,
2013-05-23 12:07:00,55.2,36.4,30.25,NNE,24,6.0,15.0,49,0.00,,---,0.00,935.00,VWS V14.01,2013-05-23 17:07:00,
2013-05-23 12:13:00,55.3,34.9,30.25,NE,51,10.0,14.0,46,0.00,,---,0.00,939.00,VWS V14.01,2013-05-23 17:13:00,
2013-05-23 12:18:00,55.1,34.2,30.25,NNE,15,6.0,11.0,45,0.00,,---,0.00,940.00,VWS V14.01,2013-05-23 17:18:00,
2013-05-23 12:23:00,55.4,33.9,30.25,NE,51,11.0,14.0,44,0.00,,---,0.00,946.00,VWS V14.01,2013-05-23 17:23:00,
2013-05-23 12:28:00,55.8,35.3,30.25,NNW,327,11.0,12.0,46,0.00,,---,0.00,942.00,VWS V14.01,2013-05-23 17:28:00,
2013-05-23 12:33:00,56.4,33.6,30.25,NE,49,10.0,12.0,42,0.00,,---,0.00,949.00,VWS V14.01,2013-05-23 17:33:00,
2013-05-23 12:38:00,55.9,34.3,30.25,NE,36,9.0,14.0,44,0.00,,---,0.00,947.00,VWS V14.01,2013-05-23 17:38:00,
2013-05-23 12:43:00,56.3,34.1,30.25,NNE,17,4.0,10.0,43,0.00,,---,0.00,951.00,VWS V14.01,2013-05-23 17:43:00,
2013-05-23 12:48:00,56.9,35.2,30.25,NNW,342,5.0,13.0,44,0.00,,---,0.00,951.00,VWS V14.01,2013-05-23 17:48:00,
2013-05-23 12:53:00,56.0,33.8,30.25,NE,38,4.0,12.0,43,0.00,,---,0.00,951.00,VWS V14.01,2013-05-23 17:53:00,
2013-05-23 12:58:00,56.4,34.2,30.25,NNW,340,9.0,13.0,43,0.00,,---,0.00,953.00,VWS V14.01,2013-05-23 17:58:00,
2013-05-23 13:03:00,56.3,32.9,30.25,NW,305,4.0,16.0,41,0.00,,---,0.00,949.00,VWS V14.01,2013-05-23 18:03:00,
2013-05-23 13:08:00,56.3,34.1,30.25,NE,42,6.0,14.0,43,0.00,,---,0.00,951.00,VWS V14.01,2013-05-23 18:08:00,
2013-05-23 13:13:00,57.0,33.5,30.25,NNE,29,4.0,13.0,41,0.00,,---,0.00,949.00,VWS V14.01,2013-05-23 18:13:00,
2013-05-23 13:18:00,57.6,34.7,30.25,ENE,61,5.0,9.0,42,0.00,,---,0.00,949.00,VWS V14.01,2013-05-23 18:18:00,
2013-05-23 13:23:00,58.4,36.0,30.25,NE,44,12.0,13.0,43,0.00,,---,0.00,951.00,VWS V14.01,2013-05-23 18:23:00,
2013-05-23 13:28:00,57.6,33.5,30.25,ENE,67,7.0,12.0,40,0.00,,---,0.00,949.00,VWS V14.01,2013-05-23 18:28:00,
2013-05-23 13:33:00,57.5,33.4,30.25,NE,35,5.0,9.0,40,0.00,,---,0.00,942.00,VWS V14.01,2013-05-23 18:33:00,
2013-05-23 13:38:00,58.1,33.3,30.25,ENE,63,11.0,14.0,39,0.00,,---,0.00,946.00,VWS V14.01,2013-05-23 18:38:00,
2013-05-23 13:44:00,57.9,34.4,30.25,NE,45,6.0,12.0,41,0.00,,---,0.00,937.00,VWS V14.01,2013-05-23 18:44:00,
2013-05-23 13:49:00,58.0,35.1,30.25,NNE,27,9.0,11.0,42,0.00,,---,0.00,935.00,VWS V14.01,2013-05-23 18:49:00,
2013-05-23 13:54:00,59.0,34.1,30.25,NNE,16,10.0,10.0,39,0.00,,---,0.00,932.00,VWS V14.01,2013-05-23 18:54:00,
2013-05-23 13:59:00,59.3,33.7,30.25,ENE,60,5.0,12.0,38,0.00,,---,0.00,930.00,VWS V14.01,2013-05-23 18:59:00,
2013-05-23 14:04:00,59.5,35.8,30.25,NNE,31,10.0,12.0,41,0.00,,---,0.00,926.00,VWS V14.01,2013-05-23 19:04:00,
2013-05-23 14:09:00,59.1,35.4,30.25,NE,55,5.0,12.0,41,0.00,,---,0.00,919.00,VWS V14.01,2013-05-23 19:09:00,
2013-05-23 14:14:00,59.3,34.4,30.25,NNE,30,7.0,11.0,39,0.00,,---,0.00,914.00,VWS V14.01,2013-05-23 19:14:00,
2013-05-23 14:19:00,59.6,32.6,30.25,NE,44,7.0,16.0,36,0.00,,---,0.00,911.00,VWS V14.01,2013-05-23 19:19:00,
2013-05-23 14:24:00,59.5,35.8,30.25,ENE,57,8.0,12.0,41,0.00,,---,0.00,900.00,VWS V14.01,2013-05-23 19:24:00,
2013-05-23 14:29:00,60.3,34.6,30.25,NNE,15,4.0,6.0,38,0.00,,---,0.00,896.00,VWS V14.01,2013-05-23 19:29:00,
2013-05-23 14:34:00,59.8,33.5,30.25,NNE,29,0.0,7.0,37,0.00,,---,0.00,891.00,VWS V14.01,2013-05-23 19:34:00,
2013-05-23 14:40:00,60.0,36.2,30.25,NE,55,6.0,15.0,41,0.00,,---,0.00,881.00,VWS V14.01,2013-05-23 19:40:00,
2013-05-23 14:45:00,60.2,35.2,30.25,NNE,30,6.0,10.0,39,0.00,,---,0.00,879.00,VWS V14.01,2013-05-23 19:45:00,
2013-05-23 14:50:00,60.1,34.4,30.25,NNW,342,6.0,11.0,38,0.00,,---,0.00,870.00,VWS V14.01,2013-05-23 19:50:00,
2013-05-23 14:55:00,60.3,35.3,30.25,NNE,22,5.0,10.0,39,0.00,,---,0.00,860.00,VWS V14.01,2013-05-23 19:55:00,
2013-05-23 15:00:00,61.2,36.7,30.25,NE,38,8.0,10.0,40,0.00,,---,0.00,853.00,VWS V14.01,2013-05-23 20:00:00,
2013-05-23 15:05:00,60.4,33.3,30.24,NE,46,4.0,11.0,36,0.00,,---,0.00,846.00,VWS V14.01,2013-05-23 20:05:00,
2013-05-23 15:10:00,60.6,34.2,30.24,NNE,15,9.0,16.0,37,0.00,,---,0.00,838.00,VWS V14.01,2013-05-23 20:10:00,
2013-05-23 15:15:00,61.2,32.6,30.24,ENE,64,12.0,15.0,34,0.00,,---,0.00,828.00,VWS V14.01,2013-05-23 20:15:00,
2013-05-23 15:20:00,60.9,31.6,30.25,ENE,76,4.0,5.0,33,0.00,,---,0.00,819.00,VWS V14.01,2013-05-23 20:20:00,
2013-05-23 15:25:00,61.3,33.4,30.25,NE,45,10.0,15.0,35,0.00,,---,0.00,810.00,VWS V14.01,2013-05-23 20:25:00,
2013-05-23 15:30:00,61.1,34.7,30.25,ENE,59,5.0,11.0,37,0.00,,---,0.00,803.00,VWS V14.01,2013-05-23 20:30:00,
2013-05-23 15:35:00,61.3,35.5,30.25,NW,317,4.0,8.0,38,0.00,,---,0.00,791.00,VWS V14.01,2013-05-23 20:35:00,
2013-05-23 15:40:00,61.2,32.6,30.25,NE,46,5.0,7.0,34,0.00,,---,0.00,780.00,VWS V14.01,2013-05-23 20:40:00,
2013-05-23 15:45:00,62.2,34.9,30.24,NE,34,4.0,9.0,36,0.00,,---,0.00,770.00,VWS V14.01,2013-05-23 20:45:00,
2013-05-23 15:50:00,62.1,34.2,30.24,NNW,340,3.0,8.0,35,0.00,,---,0.00,761.00,VWS V14.01,2013-05-23 20:50:00,
2013-05-23 15:55:00,62.1,34.8,30.24,NE,36,11.0,11.0,36,0.00,,---,0.00,747.00,VWS V14.01,2013-05-23 20:55:00,
2013-05-23 16:01:00,62.2,32.8,30.24,ENE,69,6.0,10.0,33,0.00,,---,0.00,738.00,VWS V14.01,2013-05-23 21:01:00,
2013-05-23 16:06:00,62.9,36.2,30.24,NNE,14,3.0,12.0,37,0.00,,---,0.00,726.00,VWS V14.01,2013-05-23 21:06:00,
2013-05-23 16:11:00,62.8,33.3,30.24,NE,40,10.0,13.0,33,0.00,,---,0.00,714.00,VWS V14.01,2013-05-23 21:11:00,
2013-05-23 16:16:00,62.7,32.4,30.24,ENE,63,7.0,13.0,32,0.00,,---,0.00,703.00,VWS V14.01,2013-05-23 21:16:00,
2013-05-23 16:21:00,62.4,31.4,30.24,East,86,4.0,12.0,31,0.00,,---,0.00,693.00,VWS V14.01,2013-05-23 21:21:00,
2013-05-23 16:26:00,63.0,32.7,30.24,NNE,16,4.0,8.0,32,0.00,,---,0.00,679.00,VWS V14.01,2013-05-23 21:26:00,
2013-05-23 16:31:00,63.1,31.2,30.24,ENE,63,7.0,12.0,30,0.00,,---,0.00,666.00,VWS V14.01,2013-05-23 21:31:00,
2013-05-23 16:36:00,63.1,28.6,30.24,NE,47,5.0,17.0,27,0.00,,---,0.00,656.00,VWS V14.01,2013-05-23 21:36:00,
2013-05-23 16:41:00,63.2,28.7,30.24,ENE,71,9.0,11.0,27,0.00,,---,0.00,645.00,VWS V14.01,2013-05-23 21:41:00,
2013-05-23 16:46:00,63.2,29.6,30.24,ENE,75,11.0,16.0,28,0.00,,---,0.00,631.00,VWS V14.01,2013-05-23 21:46:00,
2013-05-23 16:51:00,63.0,30.3,30.24,NE,41,6.0,13.0,29,0.00,,---,0.00,615.00,VWS V14.01,2013-05-23 21:51:00,
2013-05-23 16:56:00,63.3,28.8,30.24,NE,34,11.0,17.0,27,0.00,,---,0.00,608.00,VWS V14.01,2013-05-23 21:56:00,
2013-05-23 17:01:00,63.2,29.6,30.24,ENE,61,13.0,15.0,28,0.00,,---,0.00,589.00,VWS V14.01,2013-05-23 22:01:00,
2013-05-23 17:06:00,62.8,29.2,30.24,ENE,69,7.0,14.0,28,0.00,,---,0.00,577.00,VWS V14.01,2013-05-23 22:06:00,
2013-05-23 17:11:00,62.9,29.3,30.24,East,86,6.0,12.0,28,0.00,,---,0.00,561.00,VWS V14.01,2013-05-23 22:11:00,
2013-05-23 17:17:00,63.1,29.5,30.24,NE,51,9.0,16.0,28,0.00,,---,0.00,548.00,VWS V14.01,2013-05-23 22:17:00,
2013-05-23 17:22:00,62.6,27.3,30.24,NE,56,13.0,14.0,26,0.00,,---,0.00,534.00,VWS V14.01,2013-05-23 22:22:00,
2013-05-23 17:27:00,63.1,31.2,30.24,NE,51,13.0,14.0,30,0.00,,---,0.00,520.00,VWS V14.01,2013-05-23 22:27:00,
2013-05-23 17:32:00,62.7,29.1,30.24,NE,55,7.0,15.0,28,0.00,,---,0.00,504.00,VWS V14.01,2013-05-23 22:32:00,
2013-05-23 17:37:00,62.5,29.8,30.24,NE,38,6.0,10.0,29,0.00,,---,0.00,490.00,VWS V14.01,2013-05-23 22:37:00,
2013-05-23 17:42:00,63.0,29.4,30.24,NNE,32,7.0,15.0,28,0.00,,---,0.00,476.00,VWS V14.01,2013-05-23 22:42:00,
2013-05-23 17:47:00,62.9,29.3,30.24,NE,43,5.0,9.0,28,0.00,,---,0.00,459.00,VWS V14.01,2013-05-23 22:47:00,
2013-05-23 17:52:00,63.2,30.4,30.24,NE,45,9.0,9.0,29,0.00,,---,0.00,446.00,VWS V14.01,2013-05-23 22:52:00,
2013-05-23 17:57:00,63.1,29.5,30.24,NNE,31,6.0,11.0,28,0.00,,---,0.00,431.00,VWS V14.01,2013-05-23 22:57:00,
2013-05-23 18:02:00,63.2,29.6,30.25,NE,45,11.0,14.0,28,0.00,,---,0.00,415.00,VWS V14.01,2013-05-23 23:02:00,
2013-05-23 18:07:00,62.8,30.9,30.25,NNE,29,7.0,10.0,30,0.00,,---,0.00,401.00,VWS V14.01,2013-05-23 23:07:00,
2013-05-23 18:12:00,63.3,30.5,30.25,NNE,17,5.0,7.0,29,0.00,,---,0.00,387.00,VWS V14.01,2013-05-23 23:12:00,
2013-05-23 18:17:00,62.9,30.2,30.25,North,10,4.0,14.0,29,0.00,,---,0.00,369.00,VWS V14.01,2013-05-23 23:17:00,
2013-05-23 18:23:00,62.9,29.3,30.25,NE,46,6.0,10.0,28,0.00,,---,0.00,353.00,VWS V14.01,2013-05-23 23:23:00,
2013-05-23 18:28:00,62.7,29.1,30.25,NNE,32,3.0,11.0,28,0.00,,---,0.00,339.00,VWS V14.01,2013-05-23 23:28:00,
2013-05-23 18:33:00,62.9,29.3,30.25,NE,44,10.0,12.0,28,0.00,,---,0.00,325.00,VWS V14.01,2013-05-23 23:33:00,
2013-05-23 18:38:00,62.5,29.0,30.25,NE,37,4.0,11.0,28,0.00,,---,0.00,309.00,VWS V14.01,2013-05-23 23:38:00,
2013-05-23 18:43:00,62.4,28.9,30.25,NNE,30,1.0,10.0,28,0.00,,---,0.00,294.00,VWS V14.01,2013-05-23 23:43:00,
2013-05-23 18:48:00,62.5,29.8,30.25,NNE,33,6.0,11.0,29,0.00,,---,0.00,279.00,VWS V14.01,2013-05-23 23:48:00,
2013-05-23 18:53:00,62.5,29.0,30.25,NE,53,5.0,9.0,28,0.00,,---,0.00,264.00,VWS V14.01,2013-05-23 23:53:00,
2013-05-23 18:58:00,62.3,27.9,30.25,ENE,61,5.0,10.0,27,0.00,,---,0.00,248.00,VWS V14.01,2013-05-23 23:58:00,
2013-05-23 19:03:00,62.6,29.9,30.25,NE,52,7.0,9.0,29,0.00,,---,0.00,232.00,VWS V14.01,2013-05-24 00:03:00,
2013-05-23 19:08:00,62.4,28.9,30.25,NE,55,6.0,10.0,28,0.00,,---,0.00,220.00,VWS V14.01,2013-05-24 00:08:00,
2013-05-23 19:13:00,62.1,28.6,30.25,ENE,67,7.0,9.0,28,0.00,,---,0.00,206.00,VWS V14.01,2013-05-24 00:13:00,
2013-05-23 19:18:00,61.8,28.4,30.26,ENE,61,9.0,9.0,28,0.00,,---,0.00,190.00,VWS V14.01,2013-05-24 00:18:00,
2013-05-23 19:23:00,61.8,28.4,30.26,NE,52,4.0,10.0,28,0.00,,---,0.00,176.00,VWS V14.01,2013-05-24 00:23:00,
2013-05-23 19:28:00,61.6,28.2,30.26,ENE,72,10.0,10.0,28,0.00,,---,0.00,160.00,VWS V14.01,2013-05-24 00:28:00,
2013-05-23 19:33:00,61.3,27.1,30.26,ENE,72,9.0,12.0,27,0.00,,---,0.00,144.00,VWS V14.01,2013-05-24 00:33:00,
2013-05-23 19:38:00,61.1,26.9,30.26,ENE,60,10.0,12.0,27,0.00,,---,0.00,128.00,VWS V14.01,2013-05-24 00:38:00,
2013-05-23 19:43:00,60.9,26.7,30.26,ENE,57,6.0,13.0,27,0.00,,---,0.00,111.00,VWS V14.01,2013-05-24 00:43:00,
2013-05-23 19:48:00,60.7,26.5,30.25,ENE,60,6.0,11.0,27,0.00,,---,0.00,97.00,VWS V14.01,2013-05-24 00:48:00,
2013-05-23 19:54:00,60.7,27.4,30.25,ENE,68,4.0,10.0,28,0.00,,---,0.00,81.00,VWS V14.01,2013-05-24 00:54:00,
2013-05-23 19:59:00,60.5,26.4,30.25,ENE,65,11.0,11.0,27,0.00,,---,0.00,69.00,VWS V14.01,2013-05-24 00:59:00,
2013-05-23 20:04:00,60.3,27.1,30.26,ENE,64,7.0,15.0,28,0.00,,---,0.00,56.00,VWS V14.01,2013-05-24 01:04:00,
2013-05-23 20:09:00,60.1,25.1,30.26,ENE,67,5.0,11.0,26,0.00,,---,0.00,44.00,VWS V14.01,2013-05-24 01:09:00,
2013-05-23 20:14:00,60.0,26.0,30.26,ENE,59,5.0,8.0,27,0.00,,---,0.00,35.00,VWS V14.01,2013-05-24 01:14:00,
2013-05-23 20:19:00,59.8,26.6,30.25,ENE,60,10.0,10.0,28,0.00,,---,0.00,28.00,VWS V14.01,2013-05-24 01:19:00,
2013-05-23 20:24:00,59.5,27.2,30.25,ENE,68,2.0,5.0,29,0.00,,---,0.00,21.00,VWS V14.01,2013-05-24 01:24:00,
2013-05-23 20:29:00,59.3,27.1,30.25,ENE,65,4.0,9.0,29,0.00,,---,0.00,14.00,VWS V14.01,2013-05-24 01:29:00,
2013-05-23 20:34:00,59.1,26.9,30.26,ENE,65,3.0,6.0,29,0.00,,---,0.00,11.00,VWS V14.01,2013-05-24 01:34:00,
2013-05-23 20:39:00,58.8,27.5,30.26,ENE,61,2.0,4.0,30,0.00,,---,0.00,9.00,VWS V14.01,2013-05-24 01:39:00,
2013-05-23 20:44:00,58.6,28.1,30.26,ENE,60,0.0,2.0,31,0.00,,---,0.00,5.00,VWS V14.01,2013-05-24 01:44:00,
2013-05-23 20:49:00,58.4,28.7,30.26,ENE,61,0.0,1.0,32,0.00,,---,0.00,0.00,VWS V14.01,2013-05-24 01:49:00,
2013-05-23 20:54:00,58.2,28.5,30.26,ENE,61,2.0,3.0,32,0.00,,---,0.00,0.00,VWS V14.01,2013-05-24 01:54:00,
2013-05-23 20:59:00,57.8,28.9,30.26,ENE,61,0.0,3.0,33,0.00,,---,0.00,0.00,VWS V14.01,2013-05-24 01:59:00,
2013-05-23 21:04:00,57.5,29.4,30.26,ENE,61,0.0,0.0,34,0.00,,---,0.00,0.00,VWS V14.01,2013-05-24 02:04:00,
2013-05-23 21:09:00,57.2,29.1,30.26,ENE,61,0.0,0.0,34,0.00,,---,0.00,0.00,VWS V14.01,2013-05-24 02:09:00,
2013-05-23 21:14:00,57.0,29.6,30.26,ENE,61,0.0,0.0,35,0.00,,---,0.00,0.00,VWS V14.01,2013-05-24 02:14:00,
2013-05-23 21:20:00,56.7,30.1,30.26,ENE,60,0.0,0.0,36,0.00,,---,0.00,0.00,VWS V14.01,2013-05-24 02:20:00,
2013-05-23 21:25:00,56.5,29.9,30.26,ENE,61,0.0,2.0,36,0.00,,---,0.00,0.00,VWS V14.01,2013-05-24 02:25:00,
2013-05-23 21:30:00,56.3,30.4,30.26,ENE,61,1.0,2.0,37,0.00,,---,0.00,0.00,VWS V14.01,2013-05-24 02:30:00,
2013-05-23 21:35:00,56.1,30.2,30.27,ENE,59,2.0,3.0,37,0.00,,---,0.00,0.00,VWS V14.01,2013-05-24 02:35:00,
2013-05-23 21:40:00,55.8,30.6,30.27,ENE,59,3.0,4.0,38,0.00,,---,0.00,0.00,VWS V14.01,2013-05-24 02:40:00,
2013-05-23 21:45:00,55.6,30.4,30.27,ENE,59,2.0,3.0,38,0.00,,---,0.00,0.00,VWS V14.01,2013-05-24 02:45:00,
2013-05-23 21:50:00,55.4,30.2,30.28,ENE,61,3.0,4.0,38,0.00,,---,0.00,0.00,VWS V14.01,2013-05-24 02:50:00,
2013-05-23 21:55:00,55.2,30.7,30.28,ENE,62,3.0,5.0,39,0.00,,---,0.00,0.00,VWS V14.01,2013-05-24 02:55:00,
2013-05-23 22:00:00,55.0,30.5,30.28,ENE,60,1.0,2.0,39,0.00,,---,0.00,0.00,VWS V14.01,2013-05-24 03:00:00,
2013-05-23 22:05:00,54.9,29.8,30.29,ENE,61,2.0,4.0,38,0.00,,---,0.00,0.00,VWS V14.01,2013-05-24 03:05:00,
2013-05-23 22:10:00,54.9,29.8,30.29,ENE,68,3.0,5.0,38,0.00,,---,0.00,0.00,VWS V14.01,2013-05-24 03:10:00,
2013-05-23 22:15:00,54.7,30.2,30.29,ENE,70,4.0,4.0,39,0.00,,---,0.00,0.00,VWS V14.01,2013-05-24 03:15:00,
2013-05-23 22:20:00,54.4,30.0,30.29,ENE,72,3.0,4.0,39,0.00,,---,0.00,0.00,VWS V14.01,2013-05-24 03:20:00,
2013-05-23 22:25:00,54.1,30.3,30.29,ENE,74,4.0,5.0,40,0.00,,---,0.00,0.00,VWS V14.01,2013-05-24 03:25:00,
2013-05-23 22:30:00,53.9,30.8,30.30,ENE,78,4.0,5.0,41,0.00,,---,0.00,0.00,VWS V14.01,2013-05-24 03:30:00,
2013-05-23 22:35:00,53.7,31.2,30.30,ENE,78,1.0,4.0,42,0.00,,---,0.00,0.00,VWS V14.01,2013-05-24 03:35:00,
2013-05-23 22:41:00,53.5,31.0,30.30,ENE,78,0.0,4.0,42,0.00,,---,0.00,0.00,VWS V14.01,2013-05-24 03:41:00,
2013-05-23 22:46:00,53.2,31.3,30.31,ENE,78,0.0,2.0,43,0.00,,---,0.00,0.00,VWS V14.01,2013-05-24 03:46:00,
2013-05-23 22:51:00,52.8,31.5,30.31,ENE,78,4.0,4.0,44,0.00,,---,0.00,0.00,VWS V14.01,2013-05-24 03:51:00,
2013-05-23 22:56:00,52.5,31.2,30.31,ENE,78,0.0,2.0,44,0.00,,---,0.00,0.00,VWS V14.01,2013-05-24 03:56:00,
2013-05-23 23:01:00,52.4,31.1,30.31,ENE,78,0.0,2.0,44,0.00,,---,0.00,0.00,VWS V14.01,2013-05-24 04:01:00,
2013-05-23 23:02:00,52.4,31.1,30.31,ENE,78,0.0,3.0,44,0.00,,---,0.00,0.00,VWS V14.01,2013-05-24 04:02:00,
2013-05-23 23:07:00,52.5,30.7,30.31,East,80,1.0,5.0,43,0.00,,---,0.00,0.00,VWS V14.01,2013-05-24 04:07:00,
2013-05-23 23:12:00,52.4,30.6,30.31,East,82,0.0,2.0,43,0.00,,---,0.00,0.00,VWS V14.01,2013-05-24 04:12:00,
2013-05-23 23:17:00,52.2,30.4,30.32,East,82,0.0,3.0,43,0.00,,---,0.00,0.00,VWS V14.01,2013-05-24 04:17:00,
2013-05-23 23:22:00,51.9,30.1,30.32,East,82,2.0,3.0,43,0.00,,---,0.00,0.00,VWS V14.01,2013-05-24 04:22:00,
2013-05-23 23:27:00,51.9,30.1,30.32,East,82,1.0,4.0,43,0.00,,---,0.00,0.00,VWS V14.01,2013-05-24 04:27:00,
2013-05-23 23:32:00,51.8,30.0,30.32,East,82,1.0,3.0,43,0.00,,---,0.00,0.00,VWS V14.01,2013-05-24 04:32:00,
2013-05-23 23:37:00,51.6,29.9,30.32,East,82,0.0,3.0,43,0.00,,---,0.00,0.00,VWS V14.01,2013-05-24 04:37:00,
2013-05-23 23:42:00,51.5,30.3,30.32,East,82,0.0,4.0,44,0.00,,---,0.00,0.00,VWS V14.01,2013-05-24 04:42:00,
2013-05-23 23:47:00,51.1,30.0,30.31,East,82,0.0,2.0,44,0.00,,---,0.00,0.00,VWS V14.01,2013-05-24 04:47:00,
2013-05-23 23:52:00,50.9,30.3,30.31,East,82,1.0,3.0,45,0.00,,---,0.00,0.00,VWS V14.01,2013-05-24 04:52:00,
2013-05-23 23:58:00,50.8,30.2,30.31,East,82,0.0,4.0,45,0.00,,---,0.00,0.00,VWS V14.01,2013-05-24 04:58:00,